Regional Weather Roundup
Issued by NWS

Home | Current Version | Previous Version | Text Only | Print | Product List | Glossary On
Versions: 1 2 3 4 5 6 7 8 9 10 11 12 13 14 15 16 17 18 19 20 21 22 23 24 25 26 27 28 29 30 31 32 33 34 35 36 37 38 39 40 41 42 43 44 45 46 47 48 49 50
000
ASUS45 KPSR 250110
RWRAZ

ARIZONA REGIONAL HOURLY WEATHER ROUNDUP
NATIONAL WEATHER SERVICE PHOENIX AZ
600 PM MST WED DEC 24 2014

NOTE: FAIR INDICATES FEW OR NO CLOUDS BELOW 12,000 FEET WITH NO
SIGNIFICANT WEATHER AND/OR OBSTRUCTIONS TO VISIBILITY.

AZZ001>003-036-250200-
NORTHWEST ARIZONA

CITY           SKY/WX    TMP DP  RH WIND       PRES   REMARKS
BULLHEAD CITY  CLOUDY    57  23  26 S8        29.89F
KINGMAN        CLOUDY    48  16  27 VRB3      29.89F
$$

AZZ004>008-015-016-018-250200-
NORTH CENTRAL ARIZONA

CITY           SKY/WX    TMP DP  RH WIND       PRES   REMARKS
GRAND CANYON   CLOUDY    39  17  41 SW8       29.93F WCI  33
PRESCOTT       CLOUDY    45  14  28 S5        29.96F
FLAGSTAFF      CLOUDY    37  13  37 SW10      29.97F WCI  30
PAYSON         CLOUDY    39  10  30 CALM      30.02S
PAGE           CLOUDY    40  15  36 CALM      29.89F
$$

AZZ009>014-017-250200-
NORTHEAST ARIZONA

CITY           SKY/WX    TMP DP  RH WIND       PRES   REMARKS
WINSLOW        CLOUDY    41  14  33 SE7       29.94F
SAINT JOHNS    CLOUDY    36  12  37 S3        29.96F
WINDOW ROCK    CLOUDY    36  16  44 S7        29.96F WCI  30
SHOW LOW       CLOUDY    37   9  30 S14       30.01F WCI  29
$$

AZZ023-250200-
GREATER PHOENIX AREA

CITY           SKY/WX    TMP DP  RH WIND       PRES   REMARKS
PHOENIX        CLOUDY    60  20  21 CALM      29.94F
BUCKEYE          N/A     54  25  32 E5        29.94F
GLENDALE       MOCLDY    57  27  30 S5        29.96F
LUKE AFB       CLOUDY    59  22  23 SE2       29.93F
DEER VALLEY    CLOUDY    57  16  20 CALM      29.94F
SCOTTSDALE     CLOUDY    57  22  25 CALM      29.96F
MESA-GATEWAY   MOCLDY    55  25  30 NW3       29.97S
CHANDLER       MOCLDY    59  21  23 VRB5      29.96S
$$

AZZ027-028-250200-
SOUTHWEST MARICOPA COUNTY AND PINAL COUNTY

CITY           SKY/WX    TMP DP  RH WIND       PRES   REMARKS
CASA GRANDE    MOCLDY    55  25  30 CALM      29.96S
GILA BEND      MOCLDY    58  21  24 NE6       29.93F
$$

AZZ503-504-507>509-250200-
SOUTHEAST ARIZONA

CITY           SKY/WX    TMP DP  RH WIND       PRES   REMARKS
TUCSON         MOCLDY    57  20  23 NW6       29.98S
DAVIS-MONTHAN  MOCLDY    56  23  27 NW9       29.96S
RYAN FIELD       N/A     57  28  33 NW10      29.98S
NOGALES        MOCLDY    49  12  22 SE5       29.98R
SIERRA VISTA   MOCLDY    45   9  23 S6        30.01S
DOUGLAS        PTCLDY    49   6  17 S6        30.01S
SAFFORD        MOCLDY    45  19  35 CALM      30.01S
$$

AZZ020-021-025-026-031-250200-
SOUTHWEST ARIZONA

CITY           SKY/WX    TMP DP  RH WIND       PRES   REMARKS
YUMA           CLOUDY   N/A N/A N/A N3        29.92F
$$

CAZ031-033-041-043-047-048-061-250200-
SOUTHERN CALIFORNIA

CITY           SKY/WX    TMP DP  RH WIND       PRES   REMARKS
DOWNTOWN L.A.  CLOUDY    68  39  34 CALM      29.90F
L.A. AIRPORT   CLOUDY    64  47  53 W10       29.91F
SAN DIEGO      PTCLDY    66  44  45 S7        29.94F
BURBANK        CLOUDY    65  38  36 S6        29.91F
ONTARIO        MOCLDY    68  37  32 SW7       29.90F
RIVERSIDE      MOCLDY    68  37  32 W3        29.91F
PALM SPRINGS   MOCLDY    63  23  21 E5        29.92F
EL CENTRO NAS  CLOUDY    62  32  32 E5        29.91S
IMPERIAL       CLOUDY    66  25  21 E3        29.90F
BLYTHE         CLOUDY    61  29  29 CALM      29.91F
NEEDLES        CLOUDY    58  22  24 SW5       29.87F
$$

NVZ020-UTZ003-250200-
SOUTHERN NEVADA-UTAH

CITY           SKY/WX    TMP DP  RH WIND       PRES   REMARKS
LAS VEGAS      CLOUDY    49  19  30 S8        29.80F
SALT LAKE CITY CLOUDY    43  23  45 S8        29.61F
$$

NMZ009-TXZ055-250200-
NEW MEXICO-WEST TEXAS

CITY           SKY/WX    TMP DP  RH WIND       PRES   REMARKS
ALBUQUERQUE    PTCLDY    37  10  32 S6        29.99F WCI  32
EL PASO        CLEAR     44   9  23 SW7       30.04S
$$


........................KEY........................
SKY/WX - SKY CONDITION/WEATHER
TMP    - TEMPERATURE IN FAHRENHEIT
DP     - DEW POINT IN FAHRENHEIT
RH     - RELATIVE HUMIDITY IN PERCENT
WIND   - DIRECTION AND SPEED IN MILES PER HOUR (MPH)
VRB    - VARIABLE WIND DIRECTION
PRES   - MEAN SEA LEVEL PRESSURE IN INCHES OF MERCURY
         F - FALLING PRESSURE   R - RISING PRESSURE
         S - STEADY PRESSURE
VSB    - VISIBILITY IN MILES
HX     - HEAT INDEX IN FAHRENHEIT
WCI    - WIND CHILL INDEX IN FAHRENHEIT
TC     - TEMPERATURE IN CELSIUS WHICH IS ALSO KNOWN AS
         TEMPERATURE IN CENTIGRADE
AFB    - AIR FORCE BASE
         LUKE AFB IS LUKE AIR FORCE BASE
         DAVIS-MONTHAN IS DAVIS-MONTHAN AIR FORCE BASE
NAS    - NAVAL AIR STATION
         EL CENTRO NAS IS EL CENTRO NAVAL AIR STATION
N/A    - NOT AVAILABLE


USA.gov is the U.S. government's official web portal to all federal, state and local government web resources and services.